Location: Unspecified
(52.4292°N, 19.3359°E)
Time: 15:04:15
(UTC+01:00)

A-11 Canister half - Pass Details

Date: 19 October 2025
Orbit: 1526 x 1682 km, 47.3° (Epoch: 13 November)

Event Time Altitude Azimuth Distance (km) Brightness Sun altitude
Exits shadow 03:55:53 53° 201° (SSW) 1,825 9.0 -30.5°
Maximum altitude 03:57:28 59° 165° (SSE) 1,730 9.1 -30.3°
Drops below altitude 10° 04:06:31 10° 89° (E) 3,705 11.8 -29.0°
Sets 04:09:37 0° 86° (E) 4,698 12.6 -28.6°
